Location: Alsip
(41.6689°N, 87.7387°W)
Time: 14:17:42
(UTC+00:00)

Cosmos 1356 - Pass Details

Date: 14 July 2020
Orbit: 443 x 448 km, 81.1° (Epoch: 04 August)

Event Time Altitude Azimuth Distance (km) Brightness Sun altitude
Exits shadow 08:18:55 40° 152° (SSE) 668 4.0 -18.7°
Maximum altitude 08:19:50 57° 97° (E) 532 3.8 -18.6°
Drops below altitude 10° 08:23:13 10° 18° (NNE) 1,580 7.3 -18.3°
Sets 08:25:19 0° 14° (NNE) 2,456 8.4 -18.0°
